ATLAS 5 CENTAUR DEB, 49366

Orbit data source: Space-Track

ATLAS 5 CENTAUR DEB, 49366 is space debris in HEO originally from a launch on Wed, 17 Oct 2018 UTC launched from the Air Force Eastern Test Range (AFETR). Debris objects in space refer to the collection of defunct objects orbiting the Earth. Examples of debris include non-operational satellites, rocket bodies, and fragments generated from explosions, collisions, or faulty payload assembly.

Loading next visibility...
Identifier
49366, 2018-079FT
Orbit
HEO
Country
Flag of USUS
Related business
Flag of USUnited Launch Alliance/Lockheed Martin (US)
Manufacturer
ULA Decatur
Mission
Spacecraft
Bus & Motor
Unknown
Mass
Unknown
Launch date (UTC)
2018-10-17 (8 years ago)
Launch vehicle
Unknown
Launch site
Air Force Eastern Test Range (AFETR)
Object type
Payload
Rocket body
Debris
Shape & HBR
Unknown shape, 1.1 m
Radar Cross Section
RCS unknown

Expand to show TLE details & history
Last TLE update: 2 weeks ago

TLE from 2 weeks ago
0 ATLAS 5 CENTAUR DEB
1 49366U 18079FT  26210.07968784 -.00000182  00000-0  00000-0 0  9995
2 49366  14.3734  37.7810 5170684 294.2249  20.8446  1.65053934 30060
Epoch: 2026-07-29T01:54Z
TLE epoch observation values (Epoch: 2026-07-29T01:54:45.029Z)
Latitude
-0.00001°
Longitude
62.4306°
Altitude
11,900.793 km
Speed
5.517 km/s
True Right ascension
02h 31m 25s
True Declination
0° 00' 00"
Sunlit
Object was in daylight at epoch
Visualization orbit readout
Latitude
Unknown
Longitude
Unknown
Altitude
Unknown
Speed
Unknown
Apparent Right ascension
Unknown
Apparent Declination
Unknown
Sunlit
N/A
Visualization observer readout
Local Sidereal Time
16:16:08
Azimuth
Unknown
Elevation
Unknown
Doppler factor
Unknown
Orbital elements
Apogee altitude
39,508.576 km
Perigee altitude
8,229.077 km
Semi-major axis
30,246.964 km
Eccentricity
0.51707
Inclination
14.3734°
RAAN
37.781°
Arg. of periapsis
294.2249°
True anomaly
65.38797°
Mean anomaly
20.8446°
Eccentric anomaly
39.81391°
Mean motion
0.41259 °/min
Orbital period
872.53 mins
BSTAR
0
Loading maneuver chart data...
Computing Atmospheric mass density...

Documentation

Showing up to 5 results
|